Airfield :
LOGIN :

Register | Disclaimer

   EN    FR    IT 

 










Legend :    VFR   Marginal VFR   IFR   Intensive IFR   Very Intensive IFR
Visi :
Ceiling :
>= 8 km
>= 3000ft
5 to 8 km
1000 to 3000 ft
1500m to 5 km
500 to 1000 ft
800 to 1500m
200 to 500 ft
< 800m
< 200 ft
Symbols :   Thunderstorms  Fog  Heavy snow  Heavy precipitations  Wind > 20 kt
SIGMETs :     Misc.  Thunderstorms  Icing  Turbulence  Mountain Waves  Volcanic Ashes






- Airport Elevation : 194 ft
- IATA code : IEG


EPZG - Zielona Gora Babimost

CURRENT METAR :
  • 061830Z VRB01KT CAVOK M05/M06 Q1042

EXPIRED METARs :
  • 061800Z 00000KT CAVOK M05/M06 Q1041
  • 061730Z 00000KT CAVOK M04/M06 Q1041
  • 061700Z 00000KT CAVOK M03/M06 Q1041
  • 061630Z 00000KT CAVOK M03/M06 Q1041
  • 061600Z 09002KT CAVOK M01/M06 Q1041

TAF TAF EPZG
Valid from the 06 at 18:00 until the 07 at 03:00 UTC


061730Z 0618/0703 VRB02KT CAVOK
BECMG 0618/0621 3000 BR



MET'MAP, your aeronautical weather chart ! - Copyright ORBIFLY December 2007 - Disclaimer

ORBIFLY MET'MAP TEAM :

Programming & Development : Alexandra Zaïnal
Original concept : Baudouin d'Aumeries
Technical & hardware support : Manuel Goepfert
Assistance : Marc-Olivier Méhu




SOURCES & CREDITS :

   NOAA